Location: Newark
(25.0000°N, 73.5000°E)
Time: 03:32:26
(UTC+00:00)

Altair - Pass Details

Date: 06 March 2021
Orbit: 1501 x 1683 km, 47.2° (Epoch: 12 April)

Event Time Altitude Azimuth Distance (km) Brightness Sun altitude
Rises 15:48:34 0° 302° (WNW) 4,653 10.9 -36.4°
Reaches altitude 10° 15:53:04 10° 322° (NW) 3,694 10.0 -37.4°
Maximum altitude 15:58:55 18° 1° (N) 3,161 9.2 -38.7°
Enters shadow 16:00:59 17° 17° (NNE) 3,252 9.1 -39.1°
Drops below altitude 10° 16:04:52 10° 41° (NE) 3,776 - -40.0°
Sets 16:09:33 0° 59° (ENE) 4,798 - -41.0°
